When you browse on this site, cookies collect data to enhance your experience and personalize the content and advertising you see.
Visit our Privacy Policy to learn more. By continuing to use the site, you agree to this use of cookies and data.
  • In Germany
  • List of Countries
  • For 7 days
  • Water Temperature
  • Weather Map
  • Weather Widgets
  • user-avatar
    Login

    Hourly Weather Talty

    Today, 19 January, Sunday

    Time Temperature Precipitation Wind Pressure Humidity
    00:00 +1°C° 0 mm 2 mps 756 mmHg 92%
    01:00 +1°C° 0 mm 2 mps 756 mmHg 92%
    02:00 +2°C° 0 mm 1 mps 757 mmHg 92%
    03:00 +2°C° 0 mm 1 mps 757 mmHg 92%
    04:00 +2°C° 0 mm 1 mps 757 mmHg 92%
    05:00 +2°C° 0 mm 1 mps 757 mmHg 92%
    06:00 +2°C° 0 mm 1 mps 758 mmHg 92%
    07:00 -1°C° 0 mm 2 mps 759 mmHg 92%
    08:00 +1°C° 0 mm 2 mps 759 mmHg 89%
    09:00 +2°C° 0 mm 2 mps 759 mmHg 86%
    10:00 +2°C° 0 mm 2 mps 760 mmHg 84%
    11:00 +3°C° 0 mm 2 mps 760 mmHg 82%
    12:00 +3°C° 0 mm 2 mps 761 mmHg 81%
    13:00 +4°C° 0 mm 2 mps 761 mmHg 79%
    14:00 +3°C° 0 mm 2 mps 762 mmHg 83%
    15:00 +2°C° 0 mm 2 mps 762 mmHg 87%
    16:00 +2°C° 0 mm 2 mps 763 mmHg 91%
    17:00 +2°C° 0 mm 2 mps 763 mmHg 91%
    18:00 +1°C° 0 mm 2 mps 763 mmHg 91%
    19:00 +1°C° 0 mm 2 mps 764 mmHg 92%
    20:00 +2°C° 0 mm 2 mps 764 mmHg 91%
    21:00 +2°C° 0 mm 2 mps 765 mmHg 90%
    22:00 +2°C° 0 mm 2 mps 765 mmHg 89%
    23:00 +1°C° 0 mm 2 mps 766 mmHg 90%

    Tomorrow, 20 January, Monday

    Time Temperature Precipitation Wind Pressure Humidity
    00:00 +1°C° 0 mm 2 mps 766 mmHg 92%
    01:00 +1°C° 0 mm 2 mps 767 mmHg 93%
    02:00 +1°C° 0 mm 2 mps 767 mmHg 94%
    03:00 -1°C° 0 mm 2 mps 767 mmHg 95%
    04:00 -1°C° 0 mm 2 mps 767 mmHg 96%
    05:00 +1°C° 0 mm 2 mps 767 mmHg 95%
    06:00 +1°C° 0 mm 2 mps 768 mmHg 95%
    07:00 +1°C° 0 mm 2 mps 768 mmHg 95%
    08:00 +1°C° 0 mm 2 mps 768 mmHg 93%
    09:00 +1°C° 0 mm 2 mps 768 mmHg 91%
    10:00 +1°C° 0 mm 3 mps 768 mmHg 90%
    11:00 +1°C° 0 mm 3 mps 769 mmHg 86%
    12:00 +2°C° 0 mm 3 mps 769 mmHg 82%
    13:00 +3°C° 0 mm 3 mps 769 mmHg 78%
    14:00 +2°C° 0 mm 3 mps 769 mmHg 80%
    15:00 +1°C° 0 mm 3 mps 768 mmHg 82%
    16:00 +1°C° 0 mm 3 mps 768 mmHg 84%
    17:00 -1°C° 0 mm 4 mps 768 mmHg 83%
    18:00 -1°C° 0 mm 4 mps 768 mmHg 83%
    19:00 -1°C° 0 mm 4 mps 767 mmHg 82%
    20:00 -1°C° 0 mm 5 mps 767 mmHg 84%
    21:00 -1°C° 0 mm 5 mps 767 mmHg 86%
    22:00 -1°C° 0 mm 5 mps 767 mmHg 88%
    23:00 -1°C° 0 mm 5 mps 766 mmHg 88%

    Day after tomorrow, 21 January, Tuesday

    Time Temperature Precipitation Wind Pressure Humidity
    00:00 -1°C° 0 mm 5 mps 766 mmHg 87%
    01:00 -2°C° 0 mm 6 mps 765 mmHg 87%
    02:00 -2°C° 0 mm 6 mps 765 mmHg 87%
    03:00 -2°C° 0 mm 6 mps 764 mmHg 87%
    04:00 -2°C° 0 mm 6 mps 764 mmHg 87%
    05:00 -1°C° 0 mm 5 mps 764 mmHg 87%
    06:00 -1°C° 0 mm 5 mps 763 mmHg 86%
    07:00 -1°C° 0 mm 5 mps 763 mmHg 86%
    08:00 -1°C° 0 mm 6 mps 763 mmHg 83%
    09:00 -1°C° 0 mm 6 mps 762 mmHg 79%
    10:00 +1°C° 0 mm 6 mps 762 mmHg 76%
    11:00 +1°C° 0 mm 6 mps 762 mmHg 72%
    12:00 +2°C° 0 mm 6 mps 762 mmHg 68%
    13:00 +2°C° 0 mm 7 mps 761 mmHg 64%
    14:00 +2°C° 0 mm 6 mps 761 mmHg 67%
    15:00 +2°C° 0 mm 6 mps 760 mmHg 69%
    16:00 +1°C° 0 mm 6 mps 760 mmHg 72%
    17:00 +1°C° 0 mm 6 mps 760 mmHg 76%
    18:00 +1°C° 0 mm 6 mps 760 mmHg 80%
    19:00 +1°C° 0 mm 6 mps 759 mmHg 84%
    20:00 +1°C° 0 mm 6 mps 759 mmHg 85%
    21:00 +2°C° 0 mm 6 mps 758 mmHg 86%
    22:00 +2°C° 0 mm 6 mps 758 mmHg 87%
    23:00 +2°C° 0 mm 6 mps 757 mmHg 87%

    22 January, Wednesday

    Time Temperature Precipitation Wind Pressure Humidity
    00:00 +2°C° 0 mm 6 mps 757 mmHg 88%
    01:00 +3°C° 0 mm 5 mps 757 mmHg 89%
    02:00 +3°C° 0 mm 6 mps 756 mmHg 88%
    03:00 +3°C° 0 mm 6 mps 755 mmHg 87%
    04:00 +3°C° 0 mm 6 mps 754 mmHg 87%
    05:00 +3°C° 0.1 mm 7 mps 753 mmHg 85%
    06:00 +2°C° 0.1 mm 8 mps 752 mmHg 84%
    07:00 +2°C° 0.1 mm 8 mps 752 mmHg 83%
    08:00 +2°C° 0 mm 8 mps 752 mmHg 80%
    09:00 +2°C° 0 mm 8 mps 752 mmHg 78%
    10:00 +1°C° 0 mm 8 mps 752 mmHg 76%
    11:00 +2°C° 0 mm 8 mps 752 mmHg 74%
    12:00 +2°C° 0 mm 8 mps 752 mmHg 73%
    13:00 +2°C° 0 mm 8 mps 753 mmHg 72%
    14:00 +2°C° 0 mm 7 mps 753 mmHg 68%
    15:00 +1°C° 0 mm 6 mps 754 mmHg 65%
    16:00 0°C° 0 mm 5 mps 754 mmHg 62%
    17:00 0°C° 0 mm 5 mps 755 mmHg 64%
    18:00 0°C° 0 mm 5 mps 755 mmHg 66%
    19:00 -2°C° 0 mm 6 mps 756 mmHg 68%
    20:00 -2°C° 0 mm 6 mps 756 mmHg 69%
    21:00 -1°C° 0 mm 5 mps 756 mmHg 70%
    22:00 -1°C° 0 mm 5 mps 757 mmHg 70%
    23:00 -1°C° 0 mm 5 mps 757 mmHg 71%

    23 January, Thursday

    Time Temperature Precipitation Wind Pressure Humidity
    00:00 -1°C° 0 mm 5 mps 758 mmHg 72%
    01:00 -1°C° 0 mm 5 mps 759 mmHg 73%
    02:00 -1°C° 0 mm 5 mps 759 mmHg 74%
    03:00 -2°C° 0 mm 4 mps 759 mmHg 75%
    04:00 -2°C° 0 mm 4 mps 759 mmHg 76%
    05:00 -2°C° 0 mm 4 mps 760 mmHg 78%
    06:00 -2°C° 0 mm 4 mps 760 mmHg 79%
    07:00 -1°C° 0 mm 3 mps 760 mmHg 80%
    08:00 0°C° 0 mm 3 mps 761 mmHg 77%
    09:00 -1°C° 0 mm 4 mps 761 mmHg 74%
    10:00 0°C° 0 mm 4 mps 762 mmHg 71%
    11:00 0°C° 0 mm 4 mps 761 mmHg 70%
    12:00 +1°C° 0 mm 4 mps 761 mmHg 69%
    13:00 +1°C° 0 mm 4 mps 761 mmHg 68%
    14:00 +1°C° 0 mm 3 mps 760 mmHg 70%
    15:00 0°C° 0 mm 3 mps 760 mmHg 72%
    16:00 -1°C° 0 mm 3 mps 760 mmHg 73%
    17:00 -1°C° 0 mm 3 mps 759 mmHg 72%
    18:00 -2°C° 0 mm 4 mps 759 mmHg 71%
    19:00 -2°C° 0 mm 4 mps 759 mmHg 70%
    20:00 -2°C° 0 mm 4 mps 758 mmHg 68%
    21:00 -2°C° 0 mm 5 mps 758 mmHg 66%
    22:00 -2°C° 0 mm 5 mps 757 mmHg 65%
    23:00 -2°C° 0 mm 5 mps 757 mmHg 65%

    24 January, Friday

    Time Temperature Precipitation Wind Pressure Humidity
    00:00 -3°C° 0 mm 6 mps 756 mmHg 66%
    01:00 -3°C° 0 mm 6 mps 756 mmHg 67%
    02:00 -3°C° 0 mm 6 mps 755 mmHg 71%
    03:00 -3°C° 0 mm 6 mps 755 mmHg 75%
    04:00 -2°C° 0 mm 6 mps 754 mmHg 79%
    05:00 -2°C° 0 mm 6 mps 754 mmHg 81%
    06:00 -2°C° 0 mm 6 mps 754 mmHg 83%
    07:00 -1°C° 0 mm 6 mps 754 mmHg 84%
    08:00 -1°C° 0 mm 6 mps 754 mmHg 85%
    09:00 -1°C° 0 mm 6 mps 754 mmHg 86%
    10:00 +1°C° 0 mm 6 mps 754 mmHg 87%
    11:00 +1°C° 0 mm 6 mps 754 mmHg 87%
    12:00 +1°C° 0 mm 6 mps 754 mmHg 88%
    13:00 +1°C° 0 mm 6 mps 753 mmHg 88%
    14:00 +1°C° 0 mm 5 mps 753 mmHg 89%
    15:00 +1°C° 0 mm 5 mps 753 mmHg 89%
    16:00 +1°C° 0 mm 5 mps 753 mmHg 90%
    17:00 +1°C° 0 mm 5 mps 753 mmHg 90%
    18:00 +1°C° 0 mm 5 mps 753 mmHg 91%
    19:00 +1°C° 0 mm 5 mps 753 mmHg 92%
    20:00 +1°C° 0 mm 5 mps 753 mmHg 92%
    21:00 +1°C° 0 mm 5 mps 753 mmHg 92%
    22:00 0°C° 0 mm 5 mps 753 mmHg 92%
    23:00 +1°C° 0.1 mm 5 mps 753 mmHg 92%
    Show more